This demonstration page uses our WeatherBlox Daily Observations layout. Learn more.

Left ArrowRight Arrow

Hourly Observations for August 21, 2019

Temp ( °F °C ) Dew Point ( °F °C ) Humidity (%) Winds ( mph kmh ) Pressure ( in mb ) Visibility ( mi km ) Precip ( " mm )
12:59 am 00:59 Mostly Cloudy 75 23.9 74 23.3 96 96 VRB 5 7 30.09 1019 9 14 0.00 0.00
1:59 am 01:59 Mostly Cloudy 78 25.6 73 22.8 85 85 VRB 6 9 30.09 1019 10 16 0.00 0.00
2:59 am 02:59 Mostly Cloudy 74 23.3 73 22.8 97 97 SSE 3 6 30.06 1018 10 16 0.00 0.00
3:59 am 03:59 Mostly Cloudy 76 24.4 73 22.8 91 91 S 5 7 30.04 1017 10 16 0.00 0.00
4:59 am 04:59 Mostly Cloudy 76 24.4 74 23.3 94 94 SSW 5 7 30.04 1017 10 16 0.00 0.00
5:59 am 05:59 Mostly Cloudy 77 25 73 22.8 88 88 SW 9 15 30.05 1018 10 16 0.00 0.00
6:59 am 06:59 Mostly Cloudy 77 25 74 23.3 90 90 SW 8 13 30.06 1018 8 13 0.00 0.00
7:59 am 07:59 Mostly Cloudy 78 25.6 75 23.9 90 90 SSW 6 9 30.06 1018 8 13 0.00 0.00
8:59 am 08:59 Mostly Cloudy 80 26.7 74 23.3 82 82 SSW 8 13 30.05 1018 9 14 0.00 0.00
9:59 am 09:59 Partly Cloudy 83 28.3 75 23.9 77 77 SW 13 20 30.05 1018 10 16 0.00 0.00
10:59 am 10:59 Partly Cloudy 85 29.4 75 23.9 72 72 SSW 10 17 30.04 1017 10 16 0.00 0.00
11:59 am 11:59 Partly Cloudy 88 31.1 75 23.9 66 66 SSW 8 13 30.02 1017 10 16 0.00 0.00
12:59 pm 12:59 Partly Cloudy 88 31.1 74 23.3 63 63 SSW 13 20 29.99 1016 10 16 0.00 0.00
1:05 pm 13:05 Partly Cloudy with Thunderstorms 88 31.1 74 23.3 63 63 SSW 10 17 29.99 1016 10 16 0.00 0.00
1:40 pm 13:40 Mostly Cloudy with Thunderstorms 85 29.4 74 23.3 70 70 SW 9 15 29.99 1016 3 4 0.02 0.51
1:46 pm 13:46 Mostly Cloudy with Strong Thunderstorms 79 26.1 75 23.9 88 88 SW 25 41 30.02 1017 2 2 0.20 5.08
1:59 pm 13:59 Mostly Cloudy with Thunderstorms 75 23.9 74 23.3 96 96 S 9 15 30.00 1016 6 10 0.53 13.46
2:34 pm 14:34 Partly Cloudy 77 25 75 23.9 94 94 SSW 8 13 29.98 1015 10 16 0.00 0.00
2:59 pm 14:59 Mostly Cloudy 78 25.6 75 23.9 90 90 S 7 11 29.96 1015 10 16 0.00 0.00
3:59 pm 15:59 Partly Cloudy 83 28.3 77 25 82 82 S 8 13 29.96 1015 10 16 0.00 0.00
4:59 pm 16:59 Mostly Cloudy 87 30.6 76 24.4 70 70 SW 8 13 29.96 1015 10 16 0.00 0.00
5:59 pm 17:59 Partly Cloudy 87 30.6 74 23.3 65 65 SW 10 17 29.95 1014 10 16 0.00 0.00
6:59 pm 18:59 Partly Cloudy 86 30 73 22.8 65 65 SW 9 15 29.93 1014 10 16 0.00 0.00
7:59 pm 19:59 Partly Cloudy 85 29.4 73 22.8 68 68 SW 9 15 29.93 1014 10 16 0.00 0.00
8:59 pm 20:59 Partly Cloudy 84 28.9 75 23.9 74 74 SW 9 15 29.95 1014 10 16 0.00 0.00
9:59 pm 21:59 Partly Cloudy 83 28.3 75 23.9 77 77 SSW 8 13 29.96 1015 10 16 0.00 0.00
10:59 pm 22:59 Partly Cloudy 82 27.8 75 23.9 79 79 SSW 12 19 29.97 1015 10 16 0.00 0.00
11:59 pm 23:59 Partly Cloudy 81 27.2 76 24.4 85 85 SSW 10 17 29.97 1015 10 16 0.00 0.00

Powered by AerisWeather